Regional Weather Roundup
Issued by NWS

Home | Current Version | Previous Version | Graphics & Text | Print | Product List | Glossary On
Versions: 1 2 3 4 5 6 7 8 9 10 11 12 13 14 15 16 17 18 19 20 21 22 23 24 25 26 27 28 29 30 31 32 33 34 35 36 37 38 39 40 41 42 43 44 45 46 47 48 49 50
000
ASUS44 KMEG 050310
RWRTN
TENNESSEE HOURLY STATE WEATHER ROUNDUP
NATIONAL WEATHER SERVICE MEMPHIS TN
1000 PM CDT MON MAY 04 2015

TNZ002-004-019-021-049-052-054-088>092-050400-
WEST TENNESSEE

CITY           SKY/WX    TMP DP  RH WIND       PRES   REMARKS
MEMPHIS INTL   CLEAR     75  55  49 SE9       30.15R
NWS MEMPHIS      N/A     72 N/A N/A MISG        N/A
JACKSON        CLEAR     66  52  60 S7        30.18R
DYERSBURG      CLEAR     70  43  37 SE5       30.17R
PARIS          CLEAR     66  50  55 S5        30.19S
LEXINGTON      CLEAR     61  55  82 CALM      30.19S
$$

TNZ008-025-027-028-033-062-065-066-050400-
NORTH MIDDLE TENNESSEE

CITY           SKY/WX    TMP DP  RH WIND       PRES   REMARKS
NASHVILLE      CLEAR     67  56  67 S3        30.22R
CLARKSVILLE    CLEAR     68  55  63 S3        30.20R
SMYRNA         CLEAR     64  55  72 CALM      30.24R
COOKEVILLE     PTCLDY    57  55  94 CALM      30.26R
CROSSVILLE     CLEAR     62  49  62 CALM      30.30R
$$

TNZ061-075-076-078-094-096-097-050400-
SOUTH MIDDLE TENNESSEE

CITY           SKY/WX    TMP DP  RH WIND       PRES   REMARKS
FAYETTEVILLE     N/A     64  52  63 SE3       30.26R
TULLAHOMA      CLEAR     61  54  77 CALM      30.27S
WINCHESTER     CLEAR     61  54  77 CALM      30.27R
MCMINNVILLE    CLEAR     63  55  77 NE10      30.26S SQUALL
COLUMBIA       CLEAR     61  55  82 S3        30.22R
SHELBYVILLE    CLEAR     63  57  82 E5        30.26R
$$

TNZ017-018-042-046-047-050400-
NORTHEAST TENNESSEE

CITY           SKY/WX    TMP DP  RH WIND       PRES   REMARKS
TRI CITIES     PTCLDY    59  51  75 CALM      30.29R
ELIZABETHTON   CLEAR     55  52  88 CALM      30.31R
$$

TNZ012-013-036-069-073-074-050400-
CENTRAL EAST TENNESSEE

CITY           SKY/WX    TMP DP  RH WIND       PRES   REMARKS
KNOXVILLE      PTCLDY    68  51  54 CALM      30.26R
OAK RIDGE      CLEAR     64  53  67 CALM      30.28R
GATLINBURG     CLEAR     63  52  67 CALM      30.27S
MORRISTOWN     CLEAR     64  52  63 CALM      30.29R
$$

TNZ083-085-099-050400-
SOUTHEAST TENNESSEE

CITY           SKY/WX    TMP DP  RH WIND       PRES   REMARKS
CHATTANOOGA    CLEAR     63  56  78 CALM      30.27R
$$

SKY/WX REPORTED AS FAIR MEANS FEW OR NO CLOUDS BELOW
12 THOUSAND FEET.



USA.gov is the U.S. government's official web portal to all federal, state and local government web resources and services.